This is the latest recevied weather packets stored in our database for station/object AF9W-5. If no packets are shown the sender has not sent any weather packets the latest 10 day(s).
| Time | Temp. | Humidity | Pressure | Rain* | Wind** | Luminosity | Snow |
|---|---|---|---|---|---|---|---|
| 1777738616 | 26.11° C | 23% | 1015.1 hPa | 0 mm | - | 578 W/m² | - |
| 1777738010 | 26.11° C | 23% | 1014.8 hPa | 0 mm | - | 545 W/m² | - |
| 1777737709 | 26.11° C | 23% | 1015.1 hPa | 0 mm | - | 530 W/m² | - |
| 1777737104 | 26.11° C | 23% | 1015 hPa | 0 mm | - | 499 W/m² | - |
| 1777736172 | 25.56° C | 26% | 1014.8 hPa | 0 mm | - | 450 W/m² | - |
| 1777735869 | 25.56° C | 26% | 1014.7 hPa | 0 mm | - | 431 W/m² | - |
| 1777735566 | 25.56° C | 25% | 1014.5 hPa | 0 mm | - | 413 W/m² | - |
| 1777735263 | 25° C | 26% | 1014.7 hPa | 0 mm | - | 395 W/m² | - |
| 1777734960 | 26.11° C | 26% | 1014.5 hPa | 0 mm | - | 379 W/m² | - |
| 1777734657 | 24.44° C | 27% | 1014.6 hPa | 0 mm | - | 364 W/m² | - |
| 1777734355 | 23.89° C | 27% | 1014.5 hPa | 0 mm | - | 347 W/m² | - |
| 1777734050 | 24.44° C | 27% | 1014.3 hPa | 0 mm | - | 327 W/m² | - |
| 1777733748 | 23.89° C | 28% | 1014.4 hPa | 0 mm | - | 310 W/m² | - |
| 1777733444 | 23.33° C | 28% | 1014.3 hPa | 0 mm | - | 293 W/m² | - |
| 1777733140 | 22.78° C | 28% | 1014.5 hPa | 0 mm | - | 276 W/m² | - |
| 1777732838 | 21.67° C | 30% | 1014.4 hPa | 0 mm | - | 261 W/m² | - |
| 1777732534 | 21.11° C | 29% | 1014.3 hPa | 0 mm | - | 245 W/m² | - |
| 1777732233 | 21.11° C | 30% | 1014.2 hPa | 0 mm | - | 229 W/m² | - |
| 1777731929 | 20.56° C | 30% | 1014.3 hPa | 0 mm | - | 212 W/m² | - |
| 1777731626 | 20.56° C | 30% | 1014.4 hPa | 0 mm | - | 195 W/m² | - |
| 1777731323 | 19.44° C | 32% | 1014.3 hPa | 0 mm | - | 177 W/m² | - |
| 1777731021 | 19.44° C | 33% | 1014.3 hPa | 0 mm | - | 159 W/m² | - |
| 1777730719 | 20° C | 32% | 1014.2 hPa | 0 mm | - | 145 W/m² | - |
| 1777730415 | 20.56° C | 31% | 1014.2 hPa | 0 mm | - | 132 W/m² | - |
| 1777730111 | 20° C | 31% | 1014 hPa | 0 mm | - | 120 W/m² | - |
* Rain latest hour (hover to see other rain measurements)
** Current wind speed in m/s (hover to see current wind gust speed)